Regional Weather Roundup
Issued by NWS

Home | Current Version | Previous Version | Graphics & Text | Print | Product List | Glossary On
Versions: 1 2 3 4 5 6 7 8 9 10 11 12 13 14 15 16 17 18 19 20 21 22 23 24 25 26 27 28 29 30 31 32 33 34 35 36 37 38 39 40 41 42 43 44 45 46 47 48 49 50
000
ASUS43 KMKX 232021
RWRWI

WISCONSIN REGIONAL WEATHER ROUNDUP
NATIONAL WEATHER SERVICE MILWAUKEE/SULLIVAN WI
300 PM CDT SAT SEP 23 2017

NOTE: "FAIR" INDICATES FEW OR NO CLOUDS BELOW 12,000 FEET WITH NO
SIGNIFICANT WEATHER AND/OR OBSTRUCTIONS TO VISIBILITY.

WIZ001-002-006>008-014>016-023>028-232100-
NORTHWEST WISCONSIN

CITY           SKY/WX    TMP DP  RH WIND       PRES   REMARKS
SUPERIOR ARPT  PTSUNNY   83  73  69 SW7       29.92S HX  89
ASHLAND        SUNNY     90  71  53 SW15G21   29.93F HX  96
HAYWARD        PTSUNNY   85  69  58 S16G24    29.97S HX  89
SIREN          MOSUNNY   86  69  56 SW8       29.95F HX  91
CUMBERLAND     CLOUDY    82  68  61 S13G18    29.98S HX  85
RICE LAKE      CLOUDY    86  68  54 S7G16     29.99S HX  89
CHETEK         CLOUDY    86  72  61 S12G17    29.98F HX  92
LADYSMITH      MOSUNNY   85  69  59 S8        30.01S HX  88
EAU CLAIRE     PTSUNNY   88  67  49 S13       29.97F HX  91
MENOMONIE      MOSUNNY   88  69  53 SE12      29.97F HX  92
NEW RICHMOND   MOSUNNY   88  67  49 S14G20    29.96F HX  91
OSCEOLA        MOSUNNY   87  69  55 S9        29.98F HX  90
$$

WIZ003>005-009-010-017-018-232100-
NORTH CENTRAL WISCONSIN

CITY           SKY/WX    TMP DP  RH WIND       PRES   REMARKS
MANITOWISH WTR NOT AVBL
ARBOR VITAE    SUNNY     85  70  60 S13G18    30.02S HX  89
WOODRUFF       SUNNY     85  70  60 S13G18    30.02S HX  89
RHINELANDER    MOSUNNY   85  68  56 SW13G21   30.04F HX  88
EAGLE RIVER    SUNNY     86  64  48 SW9G17    30.02F HX  87
LAND O LAKES   SUNNY     86  67  52 S6        30.03F HX  89
PHILLIPS       MOSUNNY   85  70  61 S13       30.01S HX  90
TOMAHAWK       MOSUNNY   86  66  52 S3        30.03F HX  88
MEDFORD        MOSUNNY   85  67  54 S12       30.03S HX  87
MERRILL        PTSUNNY   88  67  50 S12       30.04F HX  91
$$

WIZ029-030-035-036-043>047-232100-
CENTRAL WISCONSIN

CITY           SKY/WX    TMP DP  RH WIND       PRES   REMARKS
WAUSAU         PTSUNNY   86  65  49 S12       30.02F HX  88
MOSINEE        PTSUNNY   88  66  48 S14       30.04F HX  90
MARSHFIELD     MOSUNNY   85  64  49 S9        30.03F HX  86
STEVENS POINT  MOSUNNY   87  66  50 S10       30.04S HX  89
WAUPACA        SUNNY     92  65  41 S9        30.03F HX  94
WAUTOMA        MOSUNNY   89  67  47 S7        30.03F HX  92
WISC RAPIDS    SUNNY     90  68  48 SW13      30.04F HX  94
CAMP DOUGLAS   MOSUNNY   91  66  43 SW13      30.02F HX  94
$$

WIZ011>013-019>022-031-037>040-048>050-232100-
NORTHEAST WISCONSIN

CITY           SKY/WX    TMP DP  RH WIND       PRES   REMARKS
ANTIGO         SUNNY     86  65  49 SW15      30.06S HX  87
SHAWANO        MOSUNNY   91  66  43 SW9       30.02F HX  93
OCONTO         SUNNY     90  66  45 SW8G16    30.02F HX  92
STURGEON BAY   PTSUNNY   89  69  51 SE10      30.04F HX  93
GREEN BAY      SUNNY     90  68  48 S10       30.04F HX  94
MANITOWOC      SUNNY     83  69  62 S13       30.06F HX  86
APPLETON       MOSUNNY   90  57  33 S12       30.04F HX  88
CLINTONVILLE   MOSUNNY   90  64  43 SW12      30.03F HX  91
OSHKOSH        SUNNY     88  66  48 S8        30.04F HX  90
$$

WIZ032>034-041-042-053>061-232100-
SOUTHWEST WISCONSIN

CITY           SKY/WX    TMP DP  RH WIND       PRES   REMARKS
LA CROSSE      MOSUNNY   94  65  38 S13G21    29.98F HX  96
SPARTA         MOSUNNY   90  65  44 SW12      30.01F HX  91
VIROQUA        SUNNY     89  65  45 SW13      30.04F HX  91
BOSCOBEL       SUNNY     95  62  33 S12G20    30.00F HX  96
PRAIRIE DU CHI SUNNY     93  58  31 S9        29.99F HX  91
PLATTEVILLE    SUNNY     91  63  38 SW12      30.05S HX  92
$$

WIZ056-057-062-063-064-067-068-232100-
SOUTH CENTRAL WISCONSIN

CITY           SKY/WX    TMP DP  RH WIND       PRES   REMARKS
REEDSBURG      SUNNY     92  65  41 SW10      30.03F HX  93
BARABOO/DELLS  NOT AVBL
LONE ROCK      SUNNY     93  64  38 S10       30.01F HX  94
MINERAL POINT  MOSUNNY   93  59  31 S8        30.05F HX  92
MADISON        MOSUNNY   91  63  39 S12       30.04F HX  92
MIDDLETON      SUNNY     91  55  29 S9        30.05S HX  89
WATERTOWN      SUNNY     91  63  38 SW7       30.05F HX  92
MONROE         SUNNY     91  55  29 S10       30.06F HX  89
JANESVILLE     PTSUNNY   93  57  29 VRB6      30.05F HX  92
$$

WIZ051-052-058>065-066-070>072-232100-
SOUTHEAST WISCONSIN

CITY           SKY/WX    TMP DP  RH WIND       PRES   REMARKS
MILWAUKEE      MOSUNNY   87  67  51 SE16      30.06F HX  90
WAUKESHA       PTSUNNY   90  61  37 S3        30.08F HX  89
MILWAUKEE/TIMM MOSUNNY   90  61  37 SE8       30.07F HX  89
RACINE         SUNNY     87  67  51 SE10      30.08F HX  90
BURLINGTON     SUNNY     94  64  35 S6        30.05F HX  96
KENOSHA        SUNNY     90  66  45 SE14      30.07S HX  92
FOND DU LAC    SUNNY     89  62  40 SW9       30.05F HX  89
SHEBOYGAN      SUNNY     88  71  57 SE10      30.06F HX  94
WEST BEND        N/A     86  63  45 SE8       30.06F HX  87
JUNEAU         MOSUNNY   87  64  46 S5        30.07F HX  88
$$

LSZ147-162-232100-
LAKE SUPERIOR

STATION/POSITION TIME  TEMP    WIND        PRES    WAVE
                       AIR SEA DIR/SP/G            HT/PER
                 (UTC) (F)     (DEG/KT/KT) (MB)    (FT/S)
W MID LAKE BUOY  1950   62 55  290/  6/ 10 1013.0S   1
DEVILS ISLAND    2000   76     240/  2/  3 1012.9S
SAXON HARBOR     1930   88     210/ 11/ 15 1012.9S
$$

LMZ867-665-643>646-232100-
LAKE MICHIGAN

STATION/POSITION TIME  TEMP    WIND        PRES    WAVE
                       AIR SEA DIR/SP/G            HT/PER
                 (UTC) (F)     (DEG/KT/KT) (MB)    (FT/S)
S GREEN BAY BUOY 2000   77 70  210/  6/  6 1016.7
N MID LAKE BUOY  1950   69 67  190/ 14/ 16 1017.6F   2/ 4
NORTHPORT PIER   1940   80     150/  7/ 10 1016.6F
KEWAUNEE LAKESHO 1954   68     180/ 12/ 14 1016.9F
SHEBOYGAN LAKESH 2000   72     170/ 13/ 13 1017.3F
PORT WASHINGTON  1940   78     170/  3/  5 1019.0F
ATWATER BUOY     1939   72 68  150/  8/ 10 1018.2F
MILWAUKEE LAKESH 2000   69     130/  9/  9   N/A
S MID LAKE BUOY  1950   74 72  120/  6/  6 1018.6F   0
KENOSHA   LAKESH 2000   76     170/  7/  9 1017.6
$$

TC  - TEMPERATURE IN CELSIUS
VSB - VISIBILITY IN STATUTE MILES
WCI - WIND CHILL INDEX
HX  - HEAT INDEX





USA.gov is the U.S. government's official web portal to all federal, state and local government web resources and services.